Regional Weather Roundup
Issued by NWS Grand Forks, ND

Home | Current Version | Previous Version | Graphics & Text | Print | Product List | Glossary Off
Versions: 1 2 3 4 5 6 7 8 9 10 11 12 13 14 15 16 17 18 19 20 21 22 23 24 25 26 27 28 29 30 31 32 33 34 35 36 37 38 39 40 41 42 43 44 45 46 47 48 49 50

000
ASUS43 KFGF 231710
RWRFGF
PRAIRIE TO PINES  WEATHER ROUNDUP
NATIONAL WEATHER SERVICE EASTERN NORTH DAKOTA/GRAND FORKS ND
1100 AM CST SUN NOV 23 2014

 **SATELLITE DATA USED TO AUGMENT SKY COVER AT AUTOMATED STATIONS**
 *****  WEATHER ACROSS EASTERN NORTH DAKOTA  *****

CITY           SKY/WX    TMP DP  RH WIND       PRES   REMARKS
GRAND FORKS    CLOUDY    44  34  67 W12       29.40R
GRAND FRKS AFB MOSUNNY   45  35  67 NW16G24   29.40S
GRAND FRKS NWS   N/A     41 N/A N/A W9          N/A
DEVILS LAKE    CLOUDY    32  18  55 W18       29.41R WCI  20
FARGO          CLOUDY    44  36  73 W9        29.44R
WAHPETON ARPT  CLOUDY    37  34  87 W8        29.47S
$$

 ***** WEATHER ACROSS CENTRAL AND WESTERN NORTH DAKOTA  *****

CITY           SKY/WX    TMP DP  RH WIND       PRES   REMARKS
BISMARCK       CLOUDY    29  19  66 W23G32    29.55R WCI  15
MINOT          LGT SNOW  20  14  77 W26G37    29.50R WCI   2
JAMESTOWN      CLOUDY    35  25  66 W25G31    29.45R WCI  23
MINOT AFB      LGT SNOW  22  19  91 NW29G39   29.50R FOG     WCI   4
GARRISON         N/A     23  15  71 NW29G45   29.51R WCI   6
WILLISTON      LGT SNOW  18  10  71 NW26G35   29.70R WCI  -1
DICKINSON      FLURRIES  25  18  74 NW29G41   29.59R WCI   8
HETTINGER      FLURRIES  27  21  78 NW36G43   29.62R WCI  10
$$

 *****  OTHER AIRPORT OBSERVATIONS IN OUR AREA  *****

CITY           SKY/WX    TMP DP  RH WIND       PRES   REMARKS
WALHALLA         N/A     27  27 100 N16       29.44R WCI  14
GRAFTON AIRPOR PTSUNNY   39  32  75 N6        29.39R
VALLEY CITY AR CLOUDY    39  36  87 W15G22    29.45R
CANDO          CLOUDY    30  21  69 NW14      29.43R WCI  20
CAVALIER APRT  CLOUDY    28  27  93 N16       29.42R WCI  17
GWINNER        SUNNY     39  36  87 W15       29.49R
ROLLA          CLOUDY    25  25 100 N15       29.42R WCI  12
 ***** THE ABOVE OBSERVATIONS ARE NON NWS ARE NOT QUALITY
       CONTROLLED AND MAY MIS-REPORT RAIN FOR SNOW...
$$

  *****  WEATHER ACROSS NORTHERN MINNESOTA  *****

CITY           SKY/WX    TMP DP  RH WIND       PRES   REMARKS
FLAG ISLAND    CLOUDY    34  30  86 SE7       29.37F FOG
WARROAD        CLOUDY    36  30  80 CALM      29.37F FOG
ROSEAU         PTSUNNY   36  30  80 S7        29.38F HAZE
HALLOCK        CLOUDY    32  28  86 NW15      29.40R WCI  22
THF RVR FALLS  CLOUDY    36  34  93 SW9       29.40S
BAUDETTE       CLOUDY    34  32  92 S7        29.39R FOG
WASKISH        CLOUDY    36  34  93 S5        29.41R FOG
CROOKSTON      PTSUNNY   37  34  87 S6        29.42R
STEPHEN NDAWN    N/A     41  34  75 NW8         N/A
GREENBUSH NDAW   N/A     37  32  81 W7          N/A
$$
  *****  WEATHER ACROSS CENTRAL AND WEST MINNESOTA  *****

CITY           SKY/WX    TMP DP  RH WIND       PRES   REMARKS
FOSSTON        LGT RAIN  34  30  86 S8        29.41S
BEMIDJI        CLOUDY    34  33  95 SW5       29.41R FOG
PARK RAPIDS    CLOUDY    38  36  92 W5        29.43R
ELBOW LAKE       N/A     35  34  96 W7        29.47R
WADENA         CLOUDY    36  34  93 W6        29.44S
DETROIT LAKES  LGT RAIN  36  34  93 SW3       29.44S
MOORHEAD       CLOUDY    41  39  93 SW5       29.45R
FERGUS FALLS   CLOUDY    36  36 100 W5        29.49R
MORRIS MN        N/A     37  36  93 W12       29.47R
STAPLES        CLOUDY    36  36 100 CALM      29.44S
$$
  *****  WEATHER ELSEWHERE ACROSS MINNESOTA  *****

CITY           SKY/WX    TMP DP  RH WIND       PRES   REMARKS
DULUTH         FOG       38  37  97 SW3       29.41F VSB 3/4
INTRNTL FALLS  CLOUDY    35  34  96 CALM      29.41S FOG
ELY            FOG       36  36 100 S5        29.41F VSB 1/2
CLOQUET        CLOUDY    37  37 100 CALM      29.41F FOG
WHEATON        CLOUDY    37  34  87 W8        29.51R
BRAINERD       CLOUDY    34  34 100 SW3       29.44F FOG
HIBBING        CLOUDY    37  34  89 CALM      29.41S FOG
ALEXANDRIA     CLOUDY    37  33  85 W7        29.46S
SAINT CLOUD    LGT RAIN  38  35  89 NW7       29.45F FOG
MINNEAPOLIS    DRZL/FOG  49  48  97 CALM      29.43F VSB 1/4
$$

  *****  WEATHER ACROSS SOUTH DAKOTA  *****

CITY           SKY/WX    TMP DP  RH WIND       PRES   REMARKS
SIOUX FALLS    LGT RAIN  39  36  89 NW15      29.55R
BROOKINGS      NOT AVBL
WATERTOWN      CLOUDY    37  32  82 W14       29.52R
HURON          CLOUDY    40  32  73 W21       29.58R
SISSETON         N/A     40  34  79 NW17G25   29.49R
ABERDEEN       CLOUDY    39  31  72 W9        29.55R
MITCHELL       NOT AVBL
PIERRE         MOSUNNY   41  30  65 W21G29    29.63R
MOBRIDGE       CLOUDY    38  28  67 NW21G30   29.57R
RAPID CITY     SUNNY     42  19  39 NW37G46   29.69S
$$

  *****  SOME WEATHER IN NEARBY STATES *****

CITY           SKY/WX    TMP DP  RH WIND       PRES   REMARKS
GLASGOW MT     MOSUNNY   26  16  65 NW26G38   29.80R WCI  10
GREAT FALLS MT SUNNY     35  21  56 SW15      29.90R
CHEYENNE WY    SUNNY     35   9  33 NW29G41   29.77S WCI  22
SCOTTSBLUFF NE SUNNY     43  16  33 NW26G39   29.78R
OMAHA NE       CLOUDY    49  42  77 NW22      29.48R
DES MOINES IA  DRIZZLE   53  50  89 S6        29.46F FOG
DAVENPORT IA   LGT RAIN  49  47  93 S9        29.55F FOG
CHICAGO IL     CLOUDY    51  45  79 S14       29.68F
EAU CLAIRE WI  CLOUDY    49  47  93 S8        29.46F FOG
LA CROSSE WI   CLOUDY    51  49  92 S10       29.50F
$$

  *****  SOME NATIONAL WEATHER *****

CITY           SKY/WX    TMP DP  RH WIND       PRES   REMARKS
LA GUARDIA NY  PTSUNNY   52  25  35 SW5       30.15F
RALEIGH NC     CLOUDY    53  43  68 E5        30.15F
ATLANTA GA     FOG       52  50  93 E18       29.92F VSB 3/4
NEW ORLEANS LA PTSUNNY   68  61  78 SW17G25   29.69S
OKLAHOMA CITY  PTSUNNY   58  49  72 S15       29.38F
ALBUQUERQUE NM PTSUNNY   43  24  47 NW23G29   29.90S
SALT LAKE CITY PTSUNNY   35  28  75 N5        30.22R
LOS ANGELES CA PTSUNNY   67  46  47 E6        30.14R
BOISE ID       SUNNY     36  29  75 CALM      30.31S
SEATTLE WA     PTSUNNY   48  45  89 S18       30.08S
$$

*** WEATHER ACROSS MANITOBA...SASKATCHEWAN AND ONTARIO ***
                ***ONTARIO***

CITY           SKY/WX    TMP DP  RH WIND       PRES   REMARKS
GERALDTON      FRZ DRZL  27  27 100 E10       29.54F VSB 3/4 WCI  17
THUNDER BAY    DRZL/FOG  37  37 100 E7        29.46S VSB 1
SIOUX LOOKOUT  DRIZZLE   32  32 100 E5        29.42F FOG
TORONTO        LGT RAIN  46  43  87 S3        29.98F
BIG TROUT LK   CLOUDY     5  -2  72 E9        29.81R WCI  -9
PICKLE LAKE    FLURRIES  18  12  79 E12       29.54F WCI   5
DRYDEN         CLOUDY    34  32  93 CALM      29.40F FOG
KENORA         NOT AVBL
$$
                *** MANITOBA***

CITY           SKY/WX    TMP DP  RH WIND       PRES   REMARKS
BRANDON        CLOUDY    14  10  85 N17       29.52R WCI  -3
DAUPHIN        LGT SNOW  12   7  79 N18       29.64R WCI  -5
ISLAND LAKE    LGT SNOW   3   0  85 NE12G17   29.78R DRFTSNOWWCI -13
PILOT MOUND      N/A     19  18  93 N17         N/A  WCI   4
THE PAS        MOSUNNY    0  -6  78 N12       29.89R WCI -18
THOMPSON       PTSUNNY  -17 -22  76 N6        29.95R WCI -31
WINNIPEG       CLOUDY    30  30 100 NW12      29.40S FOG     WCI  21
LYNN LAKE      MOSUNNY  -13 -17  84 VRB2      29.92F
CHURCHILL      CRYSTALS -13 -18  77 W12       29.97R WCI -33
GILLAM         CLOUDY   -18 -24  76 NW6       29.97R WCI -33
$$
                ***SASKATCHEWAN***

CITY           SKY/WX    TMP DP  RH WIND       PRES   REMARKS
ESTEVAN        LGT SNOW  16   9  73 NW23G29   29.63  DRFTSNOWWCI  -2
KINDERSLEY     PTSUNNY   14   9  79 NW9       29.82R WCI   2
LLOYDMINSTER   MOSUNNY   10   7  85 W9        29.79R WCI  -2
PRINCE ALBERT  CLOUDY     3  -2  78 E5        29.86R WCI  -6
REGINA         PTSUNNY   12   7  79 N17G25    29.75R WCI  -5
YORKTON        FLURRIES   9   3  78 N21       29.70R WCI -11
N. BATTLEFORD  LGT SNOW  14  12  92 W5        29.83S WCI   6
LA RONGE       PTSUNNY    1  -2  85 E5        29.91S WCI  -8
SASKATOON      FLURRIES  12   9  85 NE2       29.85R
SWIFT CURRENT  CLOUDY    16  14  93 NW17G23   29.78R WCI   0
$$
NOTE: THESE ARE AUTOMATED STATIONS WITH LIMITED QUALITY CONTROL
      "FAIR" INDICATES FEW OR NO CLOUDS BELOW 12,000 FEET WITH NO
      SIGNIFICANT WEATHER AND/OR OBSTRUCTIONS TO VISIBILITY.
      SKY/WX - SKY CONDITION AND SIGNIFICANT WEATHER.
      TMP - AIR TEMPERATURE.    DP   - DEWPOINT TEMPERATURE.
      RH  - RELATIVE HUMIDITY.  PRES - PRESSURE.
      HX  - HEAT INDEX.         WCI  - WIND CHILL INDEX.
$


USA.gov is the U.S. government's official web portal to all federal, state and local government web resources and services.